TimeCST,TemperatureF,Dew PointF,Humidity,Sea Level PressureIn,VisibilityMPH,Wind Direction,Wind SpeedMPH,Gust SpeedMPH,PrecipitationIn,Events,Conditions,WindDirDegrees,DateUTC
12:53 AM,23.0,19.0,85,30.06,9.0,WNW,16.1,-,N/A,,Overcast,290,2013-12-15 06:53:00
1:22 AM,21.2,17.6,86,30.03,8.0,WNW,15.0,-,N/A,,Mostly Cloudy,290,2013-12-15 07:22:00
1:30 AM,21.2,17.6,86,30.03,8.0,WNW,15.0,-,N/A,,Mostly Cloudy,290,2013-12-15 07:30:00
1:53 AM,23.0,19.0,85,30.06,8.0,West,18.4,-,N/A,,Overcast,280,2013-12-15 07:53:00
2:16 AM,23.0,19.4,86,30.03,7.0,West,16.1,-,N/A,,Overcast,270,2013-12-15 08:16:00
2:53 AM,21.0,17.1,85,30.08,8.0,West,20.7,-,N/A,,Overcast,280,2013-12-15 08:53:00
3:08 AM,19.4,15.8,86,30.04,8.0,West,16.1,-,N/A,,Mostly Cloudy,280,2013-12-15 09:08:00
3:22 AM,19.4,15.8,86,30.04,8.0,West,18.4,-,N/A,,Mostly Cloudy,280,2013-12-15 09:22:00
3:53 AM,19.9,16.0,85,30.07,7.0,West,19.6,-,N/A,,Overcast,280,2013-12-15 09:53:00
4:53 AM,16.0,12.0,84,30.09,8.0,West,18.4,-,N/A,,Mostly Cloudy,270,2013-12-15 10:53:00
5:04 AM,15.8,10.4,79,30.05,9.0,West,17.3,-,N/A,,Scattered Clouds,270,2013-12-15 11:04:00
5:29 AM,15.8,10.4,79,30.06,9.0,West,16.1,-,N/A,,Mostly Cloudy,270,2013-12-15 11:29:00
5:53 AM,15.1,10.9,84,30.11,8.0,West,15.0,-,N/A,,Overcast,270,2013-12-15 11:53:00
6:53 AM,14.0,10.0,84,30.13,6.0,WNW,19.6,-,0.00,Snow,Light Snow,290,2013-12-15 12:53:00
7:53 AM,12.9,9.0,84,30.13,6.0,West,16.1,-,0.00,,Partly Cloudy,270,2013-12-15 13:53:00
8:53 AM,14.0,10.0,84,30.14,7.0,WSW,11.5,-,N/A,,Clear,250,2013-12-15 14:53:00
9:53 AM,17.1,12.0,81,30.14,7.0,West,16.1,-,N/A,,Mostly Cloudy,260,2013-12-15 15:53:00
10:53 AM,18.0,12.9,81,30.14,9.0,West,18.4,-,N/A,,Mostly Cloudy,260,2013-12-15 16:53:00
11:53 AM,19.0,14.0,81,30.13,8.0,West,18.4,-,N/A,,Overcast,260,2013-12-15 17:53:00
12:53 PM,19.9,14.0,78,30.12,9.0,West,17.3,-,N/A,,Overcast,260,2013-12-15 18:53:00
1:53 PM,21.0,14.0,74,30.11,10.0,WSW,12.7,-,N/A,,Overcast,250,2013-12-15 19:53:00
2:53 PM,21.9,14.0,72,30.12,10.0,WSW,11.5,-,N/A,,Overcast,250,2013-12-15 20:53:00
3:53 PM,21.0,15.1,78,30.12,8.0,WSW,9.2,-,N/A,,Overcast,250,2013-12-15 21:53:00
4:53 PM,21.0,16.0,81,30.14,7.0,WSW,4.6,-,N/A,,Partly Cloudy,240,2013-12-15 22:53:00
5:53 PM,21.0,17.1,85,30.15,5.0,West,6.9,-,0.00,Snow,Light Snow,260,2013-12-15 23:53:00
6:53 PM,21.0,18.0,88,30.14,2.5,WSW,5.8,-,0.00,Snow,Light Snow,250,2013-12-16 00:53:00
7:29 PM,21.2,17.6,86,30.11,2.0,WNW,4.6,-,0.00,Snow,Light Snow,290,2013-12-16 01:29:00
7:39 PM,21.2,17.6,86,30.10,1.8,NW,3.5,-,0.00,Snow,Light Snow,310,2013-12-16 01:39:00
7:53 PM,21.0,18.0,88,30.14,2.0,NW,3.5,-,0.00,Snow,Light Snow,310,2013-12-16 01:53:00
8:53 PM,21.0,18.0,88,30.14,2.0,Calm,Calm,-,0.01,Snow,Light Snow,0,2013-12-16 02:53:00
9:08 PM,21.2,17.6,86,30.10,1.8,Calm,Calm,-,0.00,Snow,Light Snow,0,2013-12-16 03:08:00
9:53 PM,21.0,18.0,88,30.14,2.0,North,5.8,-,0.00,Snow,Light Snow,360,2013-12-16 03:53:00
10:53 PM,19.9,17.1,89,30.14,4.0,North,4.6,-,0.00,Snow,Light Snow,10,2013-12-16 04:53:00
11:10 PM,19.4,15.8,86,30.10,2.5,NNE,3.5,-,0.01,Snow,Light Snow,20,2013-12-16 05:10:00
11:20 PM,19.4,17.6,93,30.10,3.0,NNE,4.6,-,0.01,Snow,Light Snow,30,2013-12-16 05:20:00
11:27 PM,19.4,15.8,86,30.10,2.0,NNE,4.6,-,0.01,Snow,Light Snow,30,2013-12-16 05:27:00
11:39 PM,19.4,17.6,93,30.10,1.8,North,4.6,-,0.01,Snow,Light Snow,10,2013-12-16 05:39:00
11:53 PM,19.9,17.1,89,30.13,2.0,NNE,4.6,-,0.01,Snow,Light Snow,30,2013-12-16 05:53:00